SCP
0 0 0 0 0 0 0 0 0 0 0 0 0 0 0 0 0 0 0 0 0 0 0 0 0 0 0 0 0 0 0 0 0 0 0 0 0 1 1 1 2 2 1
0 0 0 0 0 0 0 0 0 0 0 0 0 0 0 0 0 0 0 0 0 0 0 0 0 0 0 0 0 0 0 0 0 0 0 0 0 0 1 1 2 2 2
0 0 0 0 0 0 0 0 0 0 0 0 0 0 0 0 0 0 0 0 0 0 0 0 0 0 0 0 0 0 0 0 0 0 0 0 0 0 1 1 2 2 2
0 0 0 0 0 0 0 0 0 0 0 0 0 0 0 0 0 0 0 0 0 0 0 0 0 0 0 0 0 0 0 0 0 0 0 0 0 1 0 1 1 2 2
0 0 0 0 0 0 0 0 0 0 0 0 0 0 0 0 0 0 0 0 0 0 0 0 0 0 0 0 0 0 0 0 0 0 0 0 0 1 1 1 1 1 2
0 0 0 0 0 0 0 0 0 0 0 0 0 0 0 0 0 0 0 0 0 0 0 0 0 0 0 0 0 0 0 0 0 0 0 0 0 0 1 1 1 1 1
0 0 0 0 0 0 0 0 0 0 0 0 0 0 0 0 0 0 0 0 0 0 0 0 0 0 0 0 0 0 0 0 0 0 0 0 0 0 0 1 1 1 1
0 0 0 0 0 0 0 0 0 0 0 0 0 0 0 0 0 0 0 0 0 0 0 0 0 0 0 0 0 0 0 0 0 0 0 0 0 0 0 0 1 1 1
0 0 0 0 0 0 0 0 0 0 0 0 0 0 0 0 0 0 0 0 0 0 0 0 0 0 0 0 0 0 0 0 0 0 0 0 0 0 0 0 0 1 0
0 0 0 0 0 0 0 0 0 0 0 0 0 0 0 0 0 0 0 0 0 0 0 0 0 0 0 0 0 0 0 0 0 0 0 0 0 0 0 0 0 0 0
0 0 0 0 0 0 0 0 0 0 0 0 0 0 0 0 0 0 0 0 0 0 0 0 0 0 0 0 0 0 0 0 0 0 0 0 0 0 0 0 0 0 0
0 0 0 0 0 0 0 0 0 0 0 0 0 0 0 0 0 0 0 0 0 0 0 0 0 0 0 0 0 0 0 -0 -0 0 0 0 0 0 0 0 0 0 0
0 0 0 0 0 0 0 0 0 0 0 0 0 0 0 0 0 0 0 0 0 0 0 0 0 0 0 0 0 0 0 0 -0 -0 -0 0 0 0 0 0 0 0 0
0 0 0 0 0 0 0 0 0 0 0 0 0 0 0 0 0 0 0 0 0 0 0 0 0 0 0 0 0 0 0 0 -0 -0 0 0 0 0 0 0 0 0 0
0 0 0 0 0 0 0 0 0 0 0 0 0 0 0 0 0 0 0 0 -0 -0 0 0 0 0 0 0 -0 0 -0 0 -0 -0 0 0 0 0 0 0 0 0 0
0 0 0 0 0 0 0 0 0 0 0 0 0 0 0 0 0 0 0 0 0 0 0 0 0 0 0 -0 -0 0 -0 -0 -0 0 0 0 0 0 0 -0 0 0 0
0 0 0 0 0 0 0 0 0 0 0 0 0 0 0 0 0 0 0 0 0 0 -0 0 -0 -0 0 -0 -0 -0 -0 -0 -0 0 0 0 0 0 0 -0 -0 -0 -0
0 0 0 0 0 0 0 0 0 0 0 0 0 0 0 0 0 0 0 0 -0 -0 0 -0 -0 0 0 -0 -0 -0 -0 0 0 0 0 0 0 0 -0 -0 -0 -0 -0
0 0 0 0 0 0 0 0 0 0 0 0 0 0 0 0 0 0 0 0 0 0 0 0 -0 0 0 -0 -0 0 0 0 0 0 -0 -0 -0 -0 -0 -0 -0 -0 -0
0 0 0 0 0 0 0 0 0 0 0 0 0 0 0 -0 -0 0 0 0 0 0 0 -0 -0 -0 0 0 0 0 0 0 0 0 0 -0 -0 -0 -0 -0 -0 -0 0
0 0 0 0 0 0 0 0 0 0 0 0 0 0 -0 -0 0 0 0 0 -0 0 0 0 0 0 0 0 -0 -0 0 0 0 0 0 -0 -0 -0 -0 -0 -0 -0 -0
0 0 0 0 0 0 0 0 0 0 0 0 0 0 0 -0 0 0 0 0 0 0 0 0 0 0 0 -0 -0 -0 -0 -0 -0 -0 -0 -0 -0 -0 -0 -0 -0 -0 0
0 0 0 0 0 0 0 0 0 0 0 0 -0 0 -0 -0 0 0 0 0 0 0 0 0 0 0 -0 -0 -0 -0 -0 -0 -0 -0 -0 -0 -0 -0 -0 -0 -0 -0 -0
0 0 0 0 -0 -0 0 0 0 0 0 -0 -0 -0 -0 -0 -0 -0 -0 -0 -0 0 0 0 0 0 0 0 0 0 0 0 0 0 -0 -0 -0 -0 -0 -0 -0 -0 -0
0 0 0 -0 -0 -0 -0 0 0 0 -0 0 -0 -0 -0 -0 0 -0 0 -0 0 -0 -0 0 -0 -0 -0 -0 -0 -0 0 0 0 0 0 0 0 0 -0 -0 -0 -0 -0
0 0 0 -0 -0 -0 -0 -0 -0 -0 -0 0 -0 -0 -0 -0 0 0 0 0 -0 0 -0 -0 0 0 0 0 0 0 0 0 0 0 0 0 -0 -0 -0 -0 -0 0 0
Wind_Speed_500mb
42 38 34 30 30 28 26 25 27 27 34 42 45 45 44 45 48 52 55 58 65 70 75 79 84 89 88 88 82 77 69 64 49 50 57 59 59 68 75 67 67 60 64
48 43 40 39 38 32 33 35 35 38 46 49 51 51 51 54 56 59 65 72 78 85 89 92 94 93 94 93 88 81 74 56 45 45 46 53 58 58 57 62 59 63 62
49 48 41 40 36 35 37 41 41 45 49 48 45 46 50 56 61 64 79 87 94 99 102 102 100 95 86 65 65 66 65 60 49 45 40 29 45 43 46 45 51 56 57
54 45 40 38 38 39 39 37 38 43 41 36 35 42 49 61 70 83 94 103 105 108 105 101 93 84 70 62 61 56 55 53 56 47 51 60 51 33 43 42 38 45 46
44 39 38 34 35 33 30 31 30 23 24 29 36 47 61 74 85 95 103 107 102 95 91 84 80 76 63 59 58 59 59 54 53 53 50 52 53 56 56 50 51 42 50
36 34 29 30 26 22 19 14 17 21 25 35 48 62 76 90 99 101 98 88 84 82 76 69 65 62 65 67 68 57 55 60 60 53 56 52 52 49 58 60 58 61 52
24 19 23 21 16 13 10 13 18 27 40 53 66 79 90 97 97 92 77 81 83 65 61 59 56 57 58 65 60 66 62 57 55 56 61 55 55 55 57 55 48 53 46
13 14 13 15 12 8 9 18 30 43 56 70 81 90 94 89 83 73 80 75 73 67 68 65 66 67 66 65 60 59 57 61 57 58 57 55 55 52 56 65 63 57 51
11 12 14 11 6 6 18 31 44 58 71 82 89 87 82 79 75 70 66 64 64 64 64 65 64 63 62 60 57 56 52 53 62 56 51 52 56 59 54 60 60 55 47
13 15 13 6 4 17 30 43 57 71 79 82 79 75 73 66 62 60 60 61 61 63 65 65 63 63 59 56 53 54 50 49 54 49 45 47 48 60 69 58 53 60 40
17 15 8 3 15 27 41 56 68 75 77 75 71 67 59 59 59 58 58 60 62 63 64 64 63 62 58 53 49 49 49 50 48 44 43 44 41 43 50 74 61 52 50
19 13 3 12 25 39 53 64 72 74 71 69 64 55 55 56 59 60 60 60 61 60 61 60 59 56 52 49 49 47 45 44 42 42 42 41 38 39 38 49 69 51 46
16 6 9 22 36 50 61 69 71 68 66 61 56 53 55 58 61 61 60 58 58 58 57 56 54 50 45 42 40 40 42 41 40 40 38 36 37 32 32 39 50 58 51
10 8 17 30 45 58 65 68 66 62 59 55 54 55 55 56 57 57 56 56 54 54 53 52 48 45 43 42 38 30 26 28 31 33 33 33 37 35 31 34 39 40 42
10 15 27 42 54 61 63 62 58 59 55 52 52 51 50 50 52 53 54 53 50 50 49 50 46 45 43 47 34 23 16 15 15 16 19 24 32 37 36 38 38 34 41
14 24 36 46 53 57 59 57 58 57 50 48 47 46 47 49 51 51 53 52 50 49 49 48 46 46 42 39 29 11 9 6 6 7 13 18 23 29 30 29 32 31 32
18 26 38 45 49 53 54 54 54 51 46 44 42 43 45 47 49 52 51 50 50 50 51 49 48 47 42 34 28 20 15 9 2 5 7 7 8 7 11 21 24 25 31
19 30 38 42 47 49 50 50 47 46 42 40 41 42 44 47 48 51 53 52 53 54 58 54 54 52 48 32 29 24 17 14 14 14 10 9 12 16 19 19 22 21 18
22 30 35 39 44 45 47 48 44 41 39 40 41 45 48 48 49 49 51 52 53 59 61 62 63 65 60 47 40 40 40 43 46 45 43 41 42 40 43 40 43 42 42
24 29 33 38 40 41 41 41 40 40 42 43 44 52 51 47 47 53 54 54 53 55 62 66 67 69 66 60 50 46 52 55 58 53 56 53 50 42 40 45 43 53 50
23 26 32 37 37 35 34 39 42 46 41 39 41 51 51 42 49 61 63 59 67 57 53 61 67 71 71 65 58 55 59 64 65 64 63 56 53 52 50 48 49 51 42
22 26 29 29 32 38 46 48 50 49 53 53 47 45 47 49 50 54 50 51 54 56 58 54 58 61 61 64 63 53 49 46 52 52 47 42 39 38 40 42 40 36 30
20 24 23 29 39 43 47 48 52 54 47 43 39 42 47 44 42 45 52 55 57 57 56 56 53 56 56 53 51 49 48 46 48 44 40 37 38 39 40 34 30 30 31
21 26 34 38 37 38 37 37 45 47 46 46 44 42 45 48 48 48 51 54 57 54 53 52 51 48 53 56 51 36 32 36 39 38 36 35 36 36 34 32 31 29 26
27 34 36 34 30 29 28 29 41 44 44 42 42 44 45 44 43 44 47 50 53 52 49 48 44 46 47 51 46 40 29 24 27 25 24 30 32 30 28 26 24 19 17
29 33 31 24 22 21 20 26 37 41 43 43 46 48 48 46 42 35 31 37 41 41 41 42 40 35 34 28 32 33 31 21 13 27 32 31 31 32 30 27 24 21 19
Wind_Direction_500mb
201 203 210 219 229 236 244 259 266 275 280 282 284 286 288 293 297 303 306 306 307 306 306 305 305 306 304 303 301 299 295 290 285 282 278 274 270 266 262 262 257 255 262
210 213 220 231 240 249 254 261 266 271 273 277 278 277 280 287 294 299 302 304 305 305 303 301 299 298 298 297 295 292 289 282 278 272 275 275 272 262 260 253 250 254 259
215 219 227 239 253 260 263 269 269 273 280 282 279 274 282 290 296 299 301 302 303 302 301 299 298 297 295 288 286 285 279 276 269 258 248 266 259 268 257 252 246 249 255
217 224 232 246 255 255 262 265 269 280 284 282 277 284 293 298 299 301 304 305 305 304 302 301 300 298 294 286 284 280 275 269 264 258 253 246 250 263 264 256 252 251 243
214 229 239 244 246 254 261 270 280 283 284 287 293 299 300 302 304 306 305 305 306 305 305 303 300 297 294 288 282 281 275 265 260 254 249 251 251 247 251 257 252 251 249
215 222 227 239 247 252 264 268 281 286 294 299 301 305 307 308 308 307 307 309 308 307 306 304 304 303 301 297 293 288 277 267 261 253 246 246 248 245 243 251 251 254 253
202 214 229 231 232 230 249 280 297 304 308 309 311 311 311 310 311 311 311 309 311 310 307 308 304 300 296 296 295 284 275 272 264 254 251 249 249 247 243 244 254 256 253
202 212 204 193 199 233 287 307 311 314 315 317 317 316 316 315 313 311 313 314 312 310 312 308 306 301 296 293 288 290 280 264 264 265 261 254 247 246 243 238 249 261 256
197 175 169 176 194 304 316 320 323 322 322 323 322 320 320 321 321 320 319 319 321 321 319 314 310 307 302 295 287 284 279 266 266 267 262 249 241 238 233 235 245 244 259
153 156 156 158 334 330 330 327 327 328 329 327 327 327 331 333 331 329 329 327 323 323 322 320 315 309 305 299 290 280 274 267 266 267 259 250 249 247 234 240 231 240 261
144 148 137 4 340 332 332 333 333 332 329 330 333 336 340 340 338 333 330 326 325 328 324 321 316 311 307 301 293 283 273 264 260 261 258 259 260 257 243 233 233 240 252
135 129 87 343 336 338 338 339 335 332 334 336 340 343 343 341 340 336 335 333 328 326 325 322 321 318 310 303 293 284 272 261 255 252 253 254 257 255 242 231 232 234 238
125 105 358 346 344 345 341 336 335 336 338 342 345 344 347 345 342 341 339 336 334 331 330 328 325 321 316 307 300 288 278 263 254 247 244 250 249 245 231 232 232 233 234
107 48 2 351 348 341 338 338 338 341 343 347 347 348 347 346 344 344 345 344 342 339 339 338 334 330 324 313 297 286 289 264 251 248 244 246 243 236 237 225 219 227 231
76 22 1 350 343 341 338 340 343 344 348 348 348 348 350 350 352 353 354 350 353 351 349 350 350 352 354 350 314 274 285 273 240 236 240 248 233 229 231 232 228 229 235
47 11 353 346 343 340 343 346 347 350 351 350 352 354 356 358 1 1 2 2 2 3 4 4 4 11 15 12 24 56 61 122 178 226 255 253 237 233 223 220 220 229 236
25 359 353 346 341 345 350 352 352 356 355 356 358 3 7 10 13 13 13 12 14 16 20 18 20 25 24 22 37 46 78 86 95 294 278 245 229 216 210 205 214 223 226
14 357 348 343 348 355 356 355 1 359 1 6 14 17 23 24 25 25 26 26 28 32 35 33 38 38 33 28 48 61 68 64 57 52 61 110 124 129 136 145 148 141 133
5 353 347 351 358 2 1 6 6 10 17 23 32 37 29 28 26 27 28 30 36 40 43 42 46 49 47 47 60 75 83 84 82 82 82 91 99 107 112 119 117 109 96
1 353 354 2 9 7 10 16 23 28 36 44 48 43 35 27 32 35 36 40 43 44 45 49 53 54 53 51 58 73 83 84 85 84 83 78 80 84 90 94 98 92 92
2 2 7 18 18 20 33 42 46 42 45 50 47 35 22 27 42 45 42 42 43 42 46 50 51 52 53 55 58 65 74 82 83 83 83 83 82 78 78 80 82 86 94
17 14 27 33 40 58 62 60 52 53 49 35 30 23 37 56 47 42 38 40 46 46 45 47 50 49 49 49 51 59 67 74 80 82 84 84 84 84 83 81 84 89 84
29 36 52 63 77 70 60 58 55 35 30 29 33 35 36 39 40 35 35 37 37 39 41 40 40 45 46 48 50 49 57 64 70 74 79 86 88 87 83 84 88 91 88
60 76 81 84 81 67 61 60 38 30 32 40 39 36 32 31 29 30 31 32 34 30 31 36 37 37 41 41 44 47 59 72 78 81 81 81 81 82 85 72 66 61 58
98 99 92 91 79 67 66 50 31 31 31 34 33 27 24 21 20 21 28 29 28 23 24 29 31 34 38 39 30 36 47 65 80 77 72 60 54 54 55 53 54 53 51
117 108 103 90 77 65 58 38 27 26 31 36 32 30 29 26 23 21 22 17 20 23 28 31 35 38 37 31 29 38 44 50 67 63 59 56 54 53 53 58 53 50 48
Wind_Speed_850mb
42 38 34 30 30 28 26 25 27 27 34 42 45 45 44 45 48 52 55 58 65 70 75 79 84 89 88 88 82 77 69 64 49 50 57 59 59 68 75 67 67 60 64
48 43 40 39 38 32 33 35 35 38 46 49 51 51 51 54 56 59 65 72 78 85 89 92 94 93 94 93 88 81 74 56 45 45 46 53 58 58 57 62 59 63 62
49 48 41 40 36 35 37 41 41 45 49 48 45 46 50 56 61 64 79 87 94 99 102 102 100 95 86 65 65 66 65 60 49 45 40 29 45 43 46 45 51 56 57
54 45 40 38 38 39 39 37 38 43 41 36 35 42 49 61 70 83 94 103 105 108 105 101 93 84 70 62 61 56 55 53 56 47 51 60 51 33 43 42 38 45 46
44 39 38 34 35 33 30 31 30 23 24 29 36 47 61 74 85 95 103 107 102 95 91 84 80 76 63 59 58 59 59 54 53 53 50 52 53 56 56 50 51 42 50
36 34 29 30 26 22 19 14 17 21 25 35 48 62 76 90 99 101 98 88 84 82 76 69 65 62 65 67 68 57 55 60 60 53 56 52 52 49 58 60 58 61 52
24 19 23 21 16 13 10 13 18 27 40 53 66 79 90 97 97 92 77 81 83 65 61 59 56 57 58 65 60 66 62 57 55 56 61 55 55 55 57 55 48 53 46
13 14 13 15 12 8 9 18 30 43 56 70 81 90 94 89 83 73 80 75 73 67 68 65 66 67 66 65 60 59 57 61 57 58 57 55 55 52 56 65 63 57 51
11 12 14 11 6 6 18 31 44 58 71 82 89 87 82 79 75 70 66 64 64 64 64 65 64 63 62 60 57 56 52 53 62 56 51 52 56 59 54 60 60 55 47
13 15 13 6 4 17 30 43 57 71 79 82 79 75 73 66 62 60 60 61 61 63 65 65 63 63 59 56 53 54 50 49 54 49 45 47 48 60 69 58 53 60 40
17 15 8 3 15 27 41 56 68 75 77 75 71 67 59 59 59 58 58 60 62 63 64 64 63 62 58 53 49 49 49 50 48 44 43 44 41 43 50 74 61 52 50
19 13 3 12 25 39 53 64 72 74 71 69 64 55 55 56 59 60 60 60 61 60 61 60 59 56 52 49 49 47 45 44 42 42 42 41 38 39 38 49 69 51 46
16 6 9 22 36 50 61 69 71 68 66 61 56 53 55 58 61 61 60 58 58 58 57 56 54 50 45 42 40 40 42 41 40 40 38 36 37 32 32 39 50 58 51
10 8 17 30 45 58 65 68 66 62 59 55 54 55 55 56 57 57 56 56 54 54 53 52 48 45 43 42 38 30 26 28 31 33 33 33 37 35 31 34 39 40 42
10 15 27 42 54 61 63 62 58 59 55 52 52 51 50 50 52 53 54 53 50 50 49 50 46 45 43 47 34 23 16 15 15 16 19 24 32 37 36 38 38 34 41
14 24 36 46 53 57 59 57 58 57 50 48 47 46 47 49 51 51 53 52 50 49 49 48 46 46 42 39 29 11 9 6 6 7 13 18 23 29 30 29 32 31 32
18 26 38 45 49 53 54 54 54 51 46 44 42 43 45 47 49 52 51 50 50 50 51 49 48 47 42 34 28 20 15 9 2 5 7 7 8 7 11 21 24 25 31
19 30 38 42 47 49 50 50 47 46 42 40 41 42 44 47 48 51 53 52 53 54 58 54 54 52 48 32 29 24 17 14 14 14 10 9 12 16 19 19 22 21 18
22 30 35 39 44 45 47 48 44 41 39 40 41 45 48 48 49 49 51 52 53 59 61 62 63 65 60 47 40 40 40 43 46 45 43 41 42 40 43 40 43 42 42
24 29 33 38 40 41 41 41 40 40 42 43 44 52 51 47 47 53 54 54 53 55 62 66 67 69 66 60 50 46 52 55 58 53 56 53 50 42 40 45 43 53 50
23 26 32 37 37 35 34 39 42 46 41 39 41 51 51 42 49 61 63 59 67 57 53 61 67 71 71 65 58 55 59 64 65 64 63 56 53 52 50 48 49 51 42
22 26 29 29 32 38 46 48 50 49 53 53 47 45 47 49 50 54 50 51 54 56 58 54 58 61 61 64 63 53 49 46 52 52 47 42 39 38 40 42 40 36 30
20 24 23 29 39 43 47 48 52 54 47 43 39 42 47 44 42 45 52 55 57 57 56 56 53 56 56 53 51 49 48 46 48 44 40 37 38 39 40 34 30 30 31
21 26 34 38 37 38 37 37 45 47 46 46 44 42 45 48 48 48 51 54 57 54 53 52 51 48 53 56 51 36 32 36 39 38 36 35 36 36 34 32 31 29 26
27 34 36 34 30 29 28 29 41 44 44 42 42 44 45 44 43 44 47 50 53 52 49 48 44 46 47 51 46 40 29 24 27 25 24 30 32 30 28 26 24 19 17
29 33 31 24 22 21 20 26 37 41 43 43 46 48 48 46 42 35 31 37 41 41 41 42 40 35 34 28 32 33 31 21 13 27 32 31 31 32 30 27 24 21 19
Wind_Direction_850mb
201 203 210 219 229 236 244 259 266 275 280 282 284 286 288 293 297 303 306 306 307 306 306 305 305 306 304 303 301 299 295 290 285 282 278 274 270 266 262 262 257 255 262
210 213 220 231 240 249 254 261 266 271 273 277 278 277 280 287 294 299 302 304 305 305 303 301 299 298 298 297 295 292 289 282 278 272 275 275 272 262 260 253 250 254 259
215 219 227 239 253 260 263 269 269 273 280 282 279 274 282 290 296 299 301 302 303 302 301 299 298 297 295 288 286 285 279 276 269 258 248 266 259 268 257 252 246 249 255
217 224 232 246 255 255 262 265 269 280 284 282 277 284 293 298 299 301 304 305 305 304 302 301 300 298 294 286 284 280 275 269 264 258 253 246 250 263 264 256 252 251 243
214 229 239 244 246 254 261 270 280 283 284 287 293 299 300 302 304 306 305 305 306 305 305 303 300 297 294 288 282 281 275 265 260 254 249 251 251 247 251 257 252 251 249
215 222 227 239 247 252 264 268 281 286 294 299 301 305 307 308 308 307 307 309 308 307 306 304 304 303 301 297 293 288 277 267 261 253 246 246 248 245 243 251 251 254 253
202 214 229 231 232 230 249 280 297 304 308 309 311 311 311 310 311 311 311 309 311 310 307 308 304 300 296 296 295 284 275 272 264 254 251 249 249 247 243 244 254 256 253
202 212 204 193 199 233 287 307 311 314 315 317 317 316 316 315 313 311 313 314 312 310 312 308 306 301 296 293 288 290 280 264 264 265 261 254 247 246 243 238 249 261 256
197 175 169 176 194 304 316 320 323 322 322 323 322 320 320 321 321 320 319 319 321 321 319 314 310 307 302 295 287 284 279 266 266 267 262 249 241 238 233 235 245 244 259
153 156 156 158 334 330 330 327 327 328 329 327 327 327 331 333 331 329 329 327 323 323 322 320 315 309 305 299 290 280 274 267 266 267 259 250 249 247 234 240 231 240 261
144 148 137 4 340 332 332 333 333 332 329 330 333 336 340 340 338 333 330 326 325 328 324 321 316 311 307 301 293 283 273 264 260 261 258 259 260 257 243 233 233 240 252
135 129 87 343 336 338 338 339 335 332 334 336 340 343 343 341 340 336 335 333 328 326 325 322 321 318 310 303 293 284 272 261 255 252 253 254 257 255 242 231 232 234 238
125 105 358 346 344 345 341 336 335 336 338 342 345 344 347 345 342 341 339 336 334 331 330 328 325 321 316 307 300 288 278 263 254 247 244 250 249 245 231 232 232 233 234
107 48 2 351 348 341 338 338 338 341 343 347 347 348 347 346 344 344 345 344 342 339 339 338 334 330 324 313 297 286 289 264 251 248 244 246 243 236 237 225 219 227 231
76 22 1 350 343 341 338 340 343 344 348 348 348 348 350 350 352 353 354 350 353 351 349 350 350 352 354 350 314 274 285 273 240 236 240 248 233 229 231 232 228 229 235
47 11 353 346 343 340 343 346 347 350 351 350 352 354 356 358 1 1 2 2 2 3 4 4 4 11 15 12 24 56 61 122 178 226 255 253 237 233 223 220 220 229 236
25 359 353 346 341 345 350 352 352 356 355 356 358 3 7 10 13 13 13 12 14 16 20 18 20 25 24 22 37 46 78 86 95 294 278 245 229 216 210 205 214 223 226
14 357 348 343 348 355 356 355 1 359 1 6 14 17 23 24 25 25 26 26 28 32 35 33 38 38 33 28 48 61 68 64 57 52 61 110 124 129 136 145 148 141 133
5 353 347 351 358 2 1 6 6 10 17 23 32 37 29 28 26 27 28 30 36 40 43 42 46 49 47 47 60 75 83 84 82 82 82 91 99 107 112 119 117 109 96
1 353 354 2 9 7 10 16 23 28 36 44 48 43 35 27 32 35 36 40 43 44 45 49 53 54 53 51 58 73 83 84 85 84 83 78 80 84 90 94 98 92 92
2 2 7 18 18 20 33 42 46 42 45 50 47 35 22 27 42 45 42 42 43 42 46 50 51 52 53 55 58 65 74 82 83 83 83 83 82 78 78 80 82 86 94
17 14 27 33 40 58 62 60 52 53 49 35 30 23 37 56 47 42 38 40 46 46 45 47 50 49 49 49 51 59 67 74 80 82 84 84 84 84 83 81 84 89 84
29 36 52 63 77 70 60 58 55 35 30 29 33 35 36 39 40 35 35 37 37 39 41 40 40 45 46 48 50 49 57 64 70 74 79 86 88 87 83 84 88 91 88
60 76 81 84 81 67 61 60 38 30 32 40 39 36 32 31 29 30 31 32 34 30 31 36 37 37 41 41 44 47 59 72 78 81 81 81 81 82 85 72 66 61 58
98 99 92 91 79 67 66 50 31 31 31 34 33 27 24 21 20 21 28 29 28 23 24 29 31 34 38 39 30 36 47 65 80 77 72 60 54 54 55 53 54 53 51
117 108 103 90 77 65 58 38 27 26 31 36 32 30 29 26 23 21 22 17 20 23 28 31 35 38 37 31 29 38 44 50 67 63 59 56 54 53 53 58 53 50 48